Location: Bauerbach
(50.4985°N, 10.3912°E)
Time: 07:49:29
(UTC+00:00)

BREEZE-M DEB (TANK) - Pass Details

Date: 13 January 2026
Orbit: 988 x 35630 km, 47.4° (Epoch: 13 February)

Event Time Altitude Azimuth Distance (km) Brightness Sun altitude
Rises 05:54:02 0° 240° (WSW) 6,026 7.2 -12.3°
Reaches altitude 10° 05:58:38 10° 236° (SW) 3,860 6.3 -11.6°
Maximum altitude 06:05:28 51° 161° (SSE) 1,258 4.4 -10.6°
Drops below altitude 10° 06:10:40 10° 85° (E) 2,950 7.1 -9.8°
Sets 06:13:35 0° 79° (E) 4,374 8.0 -9.4°
